Regional Weather Roundup
Issued by NWS

Home | Current Version | Previous Version | Text Only | Print | Product List | Glossary Off
Versions: 1 2 3 4 5 6 7 8 9 10 11 12 13 14 15 16 17 18 19 20 21 22 23 24 25 26 27

000
ASUS45 KPSR 260210
RWRAZ

ARIZONA HOURLY REGIONAL WEATHER ROUNDUP
NATIONAL WEATHER SERVICE PHOENIX AZ
700 PM MST WED APR 25 2018

NOTE: FAIR INDICATES FEW OR NO CLOUDS BELOW 12,000 FEET WITH NO
SIGNIFICANT WEATHER AND/OR OBSTRUCTIONS TO VISIBILITY.

AZZ001>003-036-260300-
NORTHWEST ARIZONA

CITY           SKY/WX    TMP DP  RH WIND       PRES   REMARKS
BULLHEAD CITY  CLEAR     99  16   5 CALM      29.79F
KINGMAN        CLEAR     84  22  10 NW9       29.99S
$$

AZZ004>008-015-016-018-260300-
NORTH CENTRAL ARIZONA

CITY           SKY/WX    TMP DP  RH WIND       PRES   REMARKS
GRAND CANYON   PTCLDY    66  14  13 CALM      30.19F
WILLIAMS       CLEAR     68  12  11 N7        30.16S
PRESCOTT       CLEAR     77  20  12 W9        30.07S
FLAGSTAFF      CLEAR     64  19  17 NE7       30.21R
PAYSON         CLEAR     75  18  11 W8        30.08S
PAGE           CLEAR     74  19  12 NE6       30.03F
$$

AZZ009>014-017-260300-
NORTHEAST ARIZONA

CITY           SKY/WX    TMP DP  RH WIND       PRES   REMARKS
WINSLOW        NOT AVBL
SAINT JOHNS    CLEAR     70  14  11 N7        30.11S
WINDOW ROCK    CLEAR     66   7  10 NW7       30.17S
SHOW LOW       CLEAR     66  12  12 N7        30.17S
$$

AZZ540-542>544-546-548-260300-
GREATER PHOENIX AREA

CITY           SKY/WX    TMP DP  RH WIND       PRES   REMARKS
PHOENIX        MOCLDY    95  20   6 W8        29.81S
BUCKEYE        CLEAR     90  37  15 SW5       29.83S
GLENDALE       PTCLDY    93  14   5 S3        29.83F
LUKE AFB       CLEAR     94  20   7 S8        29.80F
DEER VALLEY    CLEAR     92  19   7 SW8       29.84S
SCOTTSDALE     CLEAR     93  28  10 SW5       29.85F
MESA-FALCON    PTCLDY    93  28  10 W7        29.84F
CHANDLER       CLEAR     93  21   7 W7        29.83F
$$

AZZ539-553-260300-
SOUTHWEST MARICOPA COUNTY AND PINAL COUNTY

CITY           SKY/WX    TMP DP  RH WIND       PRES   REMARKS
CASA GRANDE    PTCLDY    91  19   7 NW5       29.86S
GILA BEND      FAIR      94  14   5 NW6       29.81S
$$

AZZ503-504-507>509-260300-
SOUTHEAST ARIZONA

CITY           SKY/WX    TMP DP  RH WIND       PRES   REMARKS
TUCSON         CLEAR     89  22   8 N8        29.93S
DAVIS-MONTHAN  CLEAR     88  24  10 N9        29.92S
RYAN FIELD     CLEAR     90  21   8 NW6       29.92S
NOGALES        CLEAR     80  14   8 SW7       30.02S
SIERRA VISTA   CLEAR     78  12   8 SW13      30.07S
DOUGLAS        CLEAR     82  18   9 W12       30.01R
SAFFORD        CLEAR     86  14   7 W9        29.91S
$$

AZZ532-260300-
SOUTHWEST ARIZONA

CITY           SKY/WX    TMP DP  RH WIND       PRES   REMARKS
YUMA           PTCLDY    91  42  18 W6        29.81S
$$

CAZ041-043-047-048-061-525>527-560>570-260300-
SOUTHERN CALIFORNIA

CITY           SKY/WX    TMP DP  RH WIND       PRES   REMARKS
DOWNTOWN L.A.  CLEAR     62  51  67 VRB5      30.00F
L.A. AIRPORT   PTCLDY    59  52  77 W13       30.02S
SAN DIEGO      MOCLDY    62  53  72 W10       30.04S
BURBANK        CLEAR     69  43  38 S8        29.99S
ONTARIO        PTCLDY    74  48  39 SW14      29.98S
RIVERSIDE      CLEAR     74  43  32 W12       29.98S
PALM SPRINGS   CLEAR     91  38  15 NW16G28   29.83F
EL CENTRO NAS  MOCLDY    91  38  15 W18       29.82S
IMPERIAL       MOCLDY    87  46  24 W10       29.79S
BLYTHE         PTCLDY    96  27   8 SW12      29.79F
NEEDLES        CLEAR     99  18   5 E6        29.81S
$$

NVZ020-UTZ003-260300-
SOUTHERN NEVADA-UTAH

CITY           SKY/WX    TMP DP  RH WIND       PRES   REMARKS
LAS VEGAS      MOCLDY    90  21   8 NE9       29.89F
SALT LAKE CITY MOCLDY    69  30  23 N3        30.07F
$$

NMZ009-TXZ055-260300-
NEW MEXICO-WEST TEXAS

CITY           SKY/WX    TMP DP  RH WIND       PRES   REMARKS
ALBUQUERQUE    PTCLDY    70  28  21 SW7       30.10S
EL PASO        PTCLDY    70  37  29 SE10      30.08S
$$


........................KEY........................
SKY/WX - SKY CONDITION/WEATHER
TMP    - TEMPERATURE IN FAHRENHEIT
DP     - DEW POINT IN FAHRENHEIT
RH     - RELATIVE HUMIDITY IN PERCENT
WIND   - DIRECTION AND SPEED IN MILES PER HOUR (MPH)
VRB    - VARIABLE WIND DIRECTION
PRES   - MEAN SEA LEVEL PRESSURE IN INCHES OF MERCURY
         F - FALLING PRESSURE   R - RISING PRESSURE
         S - STEADY PRESSURE
VSB    - VISIBILITY IN MILES
HX     - HEAT INDEX IN FAHRENHEIT
WCI    - WIND CHILL INDEX IN FAHRENHEIT
TC     - TEMPERATURE IN CELSIUS WHICH IS ALSO KNOWN AS
         TEMPERATURE IN CENTIGRADE
AFB    - AIR FORCE BASE
         LUKE AFB IS LUKE AIR FORCE BASE
         DAVIS-MONTHAN IS DAVIS-MONTHAN AIR FORCE BASE
NAS    - NAVAL AIR STATION
         EL CENTRO NAS IS EL CENTRO NAVAL AIR STATION
N/A    - NOT AVAILABLE





USA.gov is the U.S. government's official web portal to all federal, state and local government web resources and services.